Epoch 2002 July 25.0 TT = JDT 2452480.5 T 2002 Aug. 8.70523 TT MPC q 4.4063768 (2000.0) P Q z +0.0008296 Peri. 85.72271 +0.23579398 +0.44509556 +/-0.0000043 Node 115.23105 -0.20122625 -0.84731889 e 0.9963443 Incl. 107.25555 +0.95074139 -0.28972512
m1 = 8.0 + 5 logΔ + 10.0 log r